| time (UTC) | temp C | wind direction | speed KPH | gust KPH | rain 1hr cm | rain 24hr cm | rain mn cm | humidity % | barometer mb |
| 20260905211019 | 25 | 248 | 0.0 | 0.0 | 0.00 | 1.57 | 0.91 | 85 | 1011.0 |
| 20260905201017 | 24 | 213 | 0.0 | 0.0 | 0.00 | 1.57 | 0.91 | 87 | 1010.8 |
| 20260905191030 | 24 | 141 | 0.0 | 0.0 | 0.10 | 1.57 | 0.91 | 91 | 1011.8 |
| 20260905181026 | 24 | 128 | 0.0 | 0.0 | 0.00 | 1.47 | 0.81 | 90 | 1011.9 |
| 20260905171028 | 22 | 319 | 0.0 | 0.0 | 0.79 | 1.47 | 0.81 | 92 | 1012.6 |
| 20260905161019 | 26 | 32 | 0.0 | 0.0 | 0.00 | 0.69 | 0.03 | 84 | 1013.1 |
| 20260905151032 | 27 | 321 | 0.0 | 3.2 | 0.00 | 0.69 | 0.03 | 78 | 1012.7 |
| 20260905141043 | 28 | 58 | 0.0 | 0.0 | 0.00 | 0.69 | 0.03 | 75 | 1012.4 |
| 20260905131019 | 25 | 75 | 0.0 | 0.0 | 0.00 | 0.69 | 0.03 | 85 | 1011.9 |
| 20260905121016 | 23 | 234 | 0.0 | 1.6 | 0.00 | 0.69 | 0.03 | 96 | 1012.0 |
| 20260905111013 | 21 | 234 | 0.0 | 0.0 | 0.03 | 0.69 | 0.03 | 96 | 1011.7 |
| 20260905101024 | 21 | 234 | 0.0 | 0.0 | 0.00 | 0.66 | 0.00 | 96 | 1011.3 |
| 20260905091036 | 21 | 234 | 0.0 | 0.0 | 0.00 | 0.66 | 0.00 | 96 | 1010.7 |
| 20260905081036 | 21 | 234 | 0.0 | 0.0 | 0.00 | 0.66 | 0.00 | 96 | 1011.2 |
| 20260905071023 | 21 | 230 | 0.0 | 0.0 | 0.00 | 0.66 | 0.00 | 96 | 1011.6 |
| 20260905061019 | 21 | 229 | 0.0 | 0.0 | 0.00 | 0.66 | 0.00 | 96 | 1012.1 |
| 20260905051011 | 22 | 219 | 0.0 | 0.0 | 0.00 | 0.66 | 0.00 | 95 | 1013.4 |
| 20260905041024 | 22 | 217 | 0.0 | 4.8 | 0.00 | 0.66 | 0.00 | 95 | 1013.9 |
| 20260905031022 | 22 | 200 | 0.0 | 0.0 | 0.00 | 0.66 | 0.66 | 95 | 1014.0 |
| 20260905021032 | 22 | 191 | 9.7 | 9.7 | 0.00 | 0.66 | 0.66 | 94 | 1014.0 |
| 20260905011026 | 22 | 201 | 0.0 | 0.0 | 0.00 | 0.66 | 0.66 | 94 | 1013.0 |
| 20260905001013 | 23 | 178 | 0.0 | 0.0 | 0.03 | 0.66 | 0.66 | 93 | 1012.4 |
| 20260904231031 | 23 | 198 | 0.0 | 0.0 | 0.05 | 0.64 | 0.64 | 92 | 1013.9 |
| 20260904221032 | 24 | 342 | 1.6 | 1.6 | 0.61 | 0.61 | 0.61 | 89 | 1014.5 |